Fort Madison
Tuesday 8:55 PM
Temperature70° (79°/57°)
Dew Point61°
Relative Humidity73
%
Visibility10
mi
Pressure1005.1
mb
Wind DirectionSW
220°
Wind Speed7
mph
Precipitation Today0.00"

Last 30 Observations

Time PresWx Temp DP Feels RH% Vsby Pressure Ceiling Direction Speed 1h Precip
8:35 PM 72° 63° 73
%
10
mi
1004.8
mb
SSW
210°
8
mph
0.00"
8:15 PM 73° 61° 65
%
10
mi
1004.8
mb
SW
220°
7
mph
0.00"
7:55 PM 73° 61° 65
%
10
mi
1004.8
mb
SW
230°
6
mph
0.00"
7:35 PM 73° 61° 65
%
10
mi
1004.4
mb
SW
220°
7
mph
0.00"
7:15 PM 75° 61° 61
%
10
mi
1004.4
mb
SW
220°
9
mph
0.00"
6:55 PM 75° 61° 61
%
10
mi
1004.4
mb
SW
230°
13
mph
(G20)
0.00"
6:35 PM 77° 61° 57
%
10
mi
1004.4
mb
SW
230°
11
mph
0.00"
6:15 PM 79° 61° 54
%
10
mi
1004.4
mb
WSW
240°
11
mph
0.00"
5:55 PM 79° 63° 58
%
10
mi
1004.4
mb
SW
230°
8
mph
(G17)
0.00"
5:35 PM 79° 63° 58
%
10
mi
1004.4
mb
SW
220°
13
mph
(G18)
0.00"
5:15 PM 79° 63° 58
%
10
mi
1004.4
mb
SW
230°
11
mph
0.00"
4:55 PM 79° 63° 58
%
10
mi
1004.4
mb
SW
230°
9
mph
(G17)
0.00"
4:35 PM 79° 63° 58
%
10
mi
1004.4
mb
SW
230°
15
mph
(G20)
0.00"
4:15 PM 79° 63° 58
%
10
mi
1004.4
mb
SW
220°
13
mph
(G21)
0.00"
3:55 PM 79° 63° 58
%
10
mi
1004.8
mb
SW
220°
14
mph
(G21)
0.00"
3:35 PM 79° 63° 58
%
10
mi
1005.1
mb
W
260°
13
mph
(G18)
0.00"
3:15 PM 77° 63° 61
%
10
mi
1005.1
mb
WSW
240°
10
mph
(G20)
0.00"
2:55 PM 77° 63° 61
%
10
mi
1005.4
mb
SSW
210°
13
mph
(G17)
0.00"
2:35 PM 75° 63° 65
%
10
mi
1005.8
mb
SSW
210°
16
mph
(G20)
0.00"
2:15 PM 75° 63° 65
%
10
mi
1005.8
mb
SW
220°
11
mph
(G21)
0.00"
1:55 PM 73° 63° 69
%
10
mi
1006.1
mb
SW
220°
14
mph
0.00"
1:35 PM 73° 63° 69
%
10
mi
1006.4
mb
SW
220°
9
mph
0.00"
1:15 PM 73° 63° 69
%
10
mi
1006.8
mb
SW
220°
13
mph
0.00"
12:55 PM 72° 63° 73
%
10
mi
1006.8
mb
SW
220°
10
mph
0.00"
12:35 PM 70° 63° 78
%
10
mi
1007.5
mb
WSW
240°
7
mph
0.00"
12:15 PM 70° 63° 78
%
10
mi
1007.8
mb
W
270°
8
mph
0.00"
11:55 AM 70° 63° 78
%
10
mi
1008.5
mb
W
260°
8
mph
0.00"
11:35 AM 68° 63° 83
%
10
mi
1008.5
mb
W
270°
8
mph
0.00"
11:15 AM 68° 63° 83
%
10
mi
1008.8
mb
SW
230°
11
mph
0.00"
10:55 AM 68° 61° 78
%
10
mi
1008.5
mb
WSW
240°
10
mph
(G16)
0.00"